TimeEST,TemperatureF,Dew PointF,Humidity,Sea Level PressureIn,VisibilityMPH,Wind Direction,Wind SpeedMPH,Gust SpeedMPH,PrecipitationIn,Events,Conditions,WindDirDegrees,DateUTC
12:54 AM,9.0,-7.1,48,30.21,-9999.0,Variable,4.6,-,N/A,,Unknown,0,2013-01-23 05:54:00
1:54 AM,9.0,-7.1,48,30.23,-9999.0,Variable,3.5,-,N/A,,Unknown,0,2013-01-23 06:54:00
2:54 AM,8.1,-6.0,53,30.24,-9999.0,Variable,4.6,-,N/A,,Unknown,0,2013-01-23 07:54:00
3:54 AM,8.1,-6.0,53,30.24,-9999.0,Calm,Calm,-,N/A,,Unknown,0,2013-01-23 08:54:00
4:54 AM,7.0,-5.1,58,30.25,-9999.0,Variable,4.6,-,N/A,,Unknown,0,2013-01-23 09:54:00
5:54 AM,7.0,-5.1,58,30.25,-9999.0,SW,4.6,-,0.02,,Unknown,230,2013-01-23 10:54:00
6:54 AM,7.0,-4.0,61,30.25,-9999.0,SW,3.5,-,N/A,,Unknown,230,2013-01-23 11:54:00
7:54 AM,7.0,-2.9,64,30.25,-9999.0,Calm,Calm,-,N/A,,Unknown,0,2013-01-23 12:54:00
8:54 AM,10.0,-2.0,58,30.27,-9999.0,Variable,4.6,-,N/A,,Unknown,0,2013-01-23 13:54:00
9:54 AM,12.0,-2.0,53,30.28,-9999.0,WNW,8.1,-,N/A,,Unknown,300,2013-01-23 14:54:00
10:54 AM,12.9,-2.9,49,30.27,-9999.0,Variable,3.5,-,N/A,,Unknown,0,2013-01-23 15:54:00
11:54 AM,15.1,-2.9,45,30.23,-9999.0,WSW,10.4,17.3,N/A,,Unknown,250,2013-01-23 16:54:00
12:54 PM,16.0,-6.0,38,30.20,-9999.0,Variable,6.9,16.1,N/A,,Unknown,0,2013-01-23 17:54:00
1:54 PM,16.0,-6.0,38,30.19,-9999.0,WNW,8.1,17.3,0.02,,Unknown,300,2013-01-23 18:54:00
2:54 PM,16.0,-6.0,38,30.20,-9999.0,Variable,6.9,-,0.03,,Unknown,0,2013-01-23 19:54:00
3:54 PM,16.0,-2.9,43,30.20,-9999.0,Variable,4.6,-,0.03,,Unknown,0,2013-01-23 20:54:00
4:54 PM,14.0,-0.9,52,30.21,-9999.0,Variable,4.6,-,N/A,,Unknown,0,2013-01-23 21:54:00
5:54 PM,12.9,-0.9,54,30.22,-9999.0,Calm,Calm,-,0.02,,Unknown,0,2013-01-23 22:54:00
6:54 PM,12.0,1.0,61,30.23,-9999.0,Calm,Calm,-,0.02,,Unknown,0,2013-01-23 23:54:00
7:54 PM,10.0,1.9,70,30.22,-9999.0,Calm,Calm,-,N/A,,Unknown,0,2013-01-24 00:54:00
8:54 PM,9.0,3.0,77,30.22,-9999.0,Calm,Calm,-,N/A,,Unknown,0,2013-01-24 01:54:00
9:54 PM,8.1,3.0,80,30.22,-9999.0,Calm,Calm,-,N/A,,Unknown,0,2013-01-24 02:54:00
10:54 PM,7.0,1.9,80,30.22,-9999.0,Calm,Calm,-,N/A,,Unknown,0,2013-01-24 03:54:00
11:54 PM,7.0,1.9,80,30.21,-9999.0,Calm,Calm,-,N/A,,Unknown,0,2013-01-24 04:54:00